[[{"header":{"parameterUnit":"m.s-1","parameterCategory":1,"la1":30.2991,"la2":30.254,"lo1":-89.0895,"lo2":-89.0444,"dy":0.0017,"dx":0.0017,"nx":28,"ny":28,"refTime":"2025-08-23T21:00:00:Z","depth":0,"parameterNumber":2,"parameterNumberName":"U-component_of_WINDS"},"data":[0,0,0,0,0,0,0,0,0,0,0,0,0,0,0,0,0,0,0,0,0,0,0,0,0,0,0,0,0,0,0,0,0,0,0,0,0,0,0,0,0,0,0,0,0,0,0,0,0,0,0,0,0,0,0,0,0,0,1.6418,1.642,0,1.6527,1.6528,1.653,1.6522,1.652,1.6519,1.6517,1.6632,1.6636,1.664,0,0,0,0,0,0,0,0,0,0,0,0,0,1.6206,1.6209,1.6418,1.642,1.6421,1.6527,1.6528,1.653,1.6522,1.652,1.6518,1.6517,1.663,1.6635,1.6641,0,0,0,0,0,0,0,0,0,0,0,0,0,1.6305,1.6211,1.6418,1.643,1.6432,1.6527,1.6528,1.653,1.6523,1.652,1.6518,1.6516,1.6628,1.6635,1.6642,1.6732,0,0,1.6662,1.6665,0,0,0,0,0,0,0,0,1.6299,1.6312,1.6427,1.6429,1.6432,1.6508,1.6495,1.6598,1.6523,1.6488,1.6517,1.6514,1.6593,1.6602,1.6628,1.6738,1.6742,1.6663,1.6667,1.667,1.6672,0,0,0,0,0,0,0,1.6292,1.6308,1.6461,1.6429,1.6432,1.643,1.6442,1.6515,1.6553,1.6491,1.6491,1.6504,1.6594,1.6622,1.6631,1.6744,1.6663,1.6669,1.6673,1.6676,1.6931,1.6934,0,0,0,0,0,0,1.6282,1.6302,1.6458,1.6465,1.6358,1.6436,1.6449,1.6486,1.6552,1.656,1.6506,1.6503,1.6611,1.6623,1.6635,1.6743,1.667,1.6676,1.668,1.6928,1.6932,1.6935,0,0,0,0,0,0,1.6278,1.6296,1.6454,1.6383,1.6403,1.6442,1.6485,1.649,1.6518,1.6563,1.657,1.6527,1.661,1.6625,1.6707,1.6747,1.668,1.6686,1.6925,1.6929,1.6933,1.6962,0,0,0,0,0,0,1.6272,1.6295,1.6329,1.6384,1.6407,1.6524,1.6487,1.6494,1.6529,1.6527,1.6585,1.6592,1.6609,1.6697,1.6714,1.6755,1.6691,1.6922,1.6927,1.6932,1.6958,1.6967,1.6974,0,0,0,0,0,1.6264,1.6334,1.6331,1.635,1.6451,1.6526,1.6539,1.6556,1.6532,1.6567,1.6596,1.659,1.674,1.6706,1.6725,1.6769,1.6919,1.6926,1.6931,1.6954,1.6965,1.6974,0,0,0,0,0,0,1.6285,1.6342,1.6339,1.6429,1.6472,1.6525,1.657,1.6568,1.662,1.6616,1.6635,1.6649,1.6731,1.6758,1.6718,1.6859,1.6827,1.6837,1.6837,1.6848,1.6856,1.6847,1.6697,0,0,0,0,0,1.6299,1.6355,1.6402,1.6477,1.6499,1.6531,1.6564,1.6573,1.662,1.6639,1.6674,1.672,1.6777,1.6814,1.687,1.6962,1.6974,1.7001,1.701,1.7016,1.7024,1.7073,1.7085,1.6954,1.6954,1.6954,0,0,1.6331,1.6369,1.6403,1.6482,1.6517,1.6574,1.6546,1.6609,1.6651,1.6648,1.6727,1.6754,1.6807,1.6894,1.6934,1.6919,1.7063,1.7024,1.7029,1.7033,1.7081,1.7093,1.7104,1.6958,1.6958,1.6957,0,0,1.6417,1.6452,1.6517,1.6552,1.6605,1.6625,1.664,1.6693,1.671,1.6789,1.6788,1.6839,1.6938,1.6975,1.7006,1.7105,1.7101,1.7122,1.7165,1.7212,1.7223,1.7232,1.7265,1.7277,1.7131,1.7131,1.7131,0,1.6449,1.6535,1.6551,1.6613,1.6647,1.6645,1.6711,1.6745,1.6814,1.6837,1.682,1.6942,1.6978,1.7072,1.7095,1.7122,1.714,1.7115,1.722,1.7229,1.7238,1.727,1.7282,1.7133,1.7133,1.7132,1.7132,0,1.6571,1.663,1.6677,1.6741,1.6781,1.6844,1.687,1.6908,1.6914,1.6936,1.7015,1.7058,1.7121,1.7144,1.7151,1.7239,1.7228,1.7215,1.7183,1.7252,1.7282,1.7295,1.7136,1.7135,1.7134,1.7134,0,0,1.6673,1.6744,1.676,1.6789,1.6846,1.6893,1.6956,1.7016,1.7048,1.7095,1.7148,1.7231,1.7218,1.7254,1.7265,1.7307,1.7379,1.7288,1.729,1.7302,1.7477,1.7485,1.7499,1.7377,1.738,1.7382,1.7472,0,1.6763,1.6874,1.6889,1.6987,1.7042,1.7041,1.7096,1.7137,1.7159,1.7208,1.7233,1.7291,1.7271,1.7292,1.7334,1.7362,1.7414,1.7356,1.7426,1.7428,1.7411,1.7515,1.7525,1.7608,1.7484,1.7486,1.7488,0,1.6883,1.6932,1.7034,1.7083,1.7106,1.7155,1.721,1.7258,1.7304,1.7318,1.7357,1.7362,1.7427,1.7393,1.7483,1.7442,1.7472,1.749,1.7494,1.75,1.7461,1.7523,1.7635,1.7647,1.7507,1.7505,1.7504,0,1.6944,1.7036,1.7108,1.7133,1.7192,1.7226,1.7252,1.7296,1.7331,1.738,1.7402,1.7458,1.7489,1.7532,1.7553,1.7526,1.764,1.7609,1.7652,1.7652,1.7675,1.7673,1.7792,1.7698,1.7697,1.7697,1.7697,0,1.7042,1.7105,1.7136,1.7181,1.7251,1.7268,1.7337,1.7362,1.7401,1.745,1.7454,1.75,1.7525,1.7575,1.7592,1.7662,1.7677,1.7689,1.7692,1.7687,1.7686,1.7706,1.77,1.77,1.77,1.7699,1.7698,0,1.7122,1.7146,1.7225,1.7273,1.7287,1.7336,1.7377,1.7421,1.7442,1.7504,1.752,1.7554,1.7613,1.7638,1.7711,1.7722,1.7802,1.7802,1.7786,1.7787,1.7828,1.7823,1.7963,1.7982,1.7876,1.7877,1.7878,0,1.7182,1.723,1.7283,1.7315,1.7342,1.7395,1.743,1.7449,1.7485,1.7541,1.7577,1.7636,1.7683,1.7778,1.7809,1.7864,1.7865,1.791,1.7873,1.7866,1.7863,1.7859,1.7863,1.7916,1.7917,1.7918,1.7919,0,1.7286,1.7294,1.7344,1.7397,1.7438,1.7481,1.7523,1.755,1.7576,1.7616,1.7676,1.7712,1.7786,1.7844,1.7901,1.7928,1.7928,1.793,1.7943,1.7938,1.7926,1.7931,1.7802,1.7927,1.7926,1.7925,1.7925,1.7925,1.7356,1.7398,1.7441,1.7495,1.7528,1.7567,1.761,1.7636,1.7685,1.7745,1.7754,1.7817,1.7862,1.7938,1.7967,1.8017,1.8006,1.8025,1.8029,1.8033,1.8035,1.7919,1.8028,1.8028,1.8028,1.8027,1.8027,0,1.7458,1.7485,1.7535,1.7593,1.7636,1.7631,1.7677,1.7713,1.7768,1.7809,1.7855,1.7923,1.7979,1.8014,1.807,1.8103,1.8104,1.8117,1.8114,1.812,1.8043,1.8025,1.8115,1.8115,1.8115,1.8115,1.8115,1.8115,1.7515,1.7585,1.7599,1.7684,1.7712,1.7772,1.7799,1.7835,1.7867,1.7942,1.7988,1.801,1.8049,1.8107,1.8158,1.8167,1.8187,1.82,1.8208,1.8135,1.8126,1.8117,1.81,1.8205,1.8205,1.8281,1.8282,1.8282]},{"header":{"parameterUnit":"m.s-1","parameterCategory":1,"la1":30.2991,"la2":30.254,"lo1":-89.0895,"lo2":-89.0444,"dy":0.0017,"dx":0.0017,"nx":28,"ny":28,"refTime":"2025-08-23T21:00:00:Z","depth":0,"parameterNumber":3,"parameterNumberName":"V-component_of_WINDS"},"data":[0,0,0,0,0,0,0,0,0,0,0,0,0,0,0,0,0,0,0,0,0,0,0,0,0,0,0,0,0,0,0,0,0,0,0,0,0,0,0,0,0,0,0,0,0,0,0,0,0,0,0,0,0,0,0,0,0,0,3.7507,3.7507,0,3.7506,3.7506,3.7506,3.7473,3.7472,3.7471,3.747,3.7467,3.7468,3.7469,0,0,0,0,0,0,0,0,0,0,0,0,0,3.7479,3.748,3.7507,3.7507,3.7507,3.7506,3.7506,3.7506,3.7473,3.7472,3.7471,3.747,3.7467,3.7468,3.7469,0,0,0,0,0,0,0,0,0,0,0,0,0,3.7486,3.748,3.7507,3.7491,3.7489,3.7506,3.7506,3.7506,3.7473,3.7472,3.747,3.7469,3.7467,3.7468,3.7469,3.7501,0,0,3.7472,3.7473,0,0,0,0,0,0,0,0,3.7486,3.7487,3.7493,3.7492,3.749,3.7488,3.7495,3.7504,3.7473,3.7479,3.747,3.7469,3.7475,3.7476,3.7478,3.7501,3.7501,3.7472,3.7473,3.7473,3.7474,0,0,0,0,0,0,0,3.7485,3.7487,3.7506,3.7493,3.7491,3.7482,3.7482,3.7496,3.7484,3.7478,3.7476,3.7476,3.7474,3.7477,3.7478,3.7501,3.7472,3.7473,3.7474,3.7474,3.7547,3.7548,0,0,0,0,0,0,3.7487,3.7487,3.7507,3.7506,3.7485,3.7484,3.7483,3.749,3.7484,3.7482,3.7478,3.7475,3.7476,3.7476,3.7477,3.7512,3.7473,3.7474,3.7475,3.7545,3.7547,3.7548,0,0,0,0,0,0,3.7487,3.7489,3.7507,3.7496,3.7497,3.7486,3.7493,3.7491,3.7493,3.7483,3.7481,3.7483,3.7475,3.7476,3.7495,3.7512,3.7475,3.7476,3.7544,3.7546,3.7548,3.7584,0,0,0,0,0,0,3.7486,3.7489,3.7502,3.7496,3.7498,3.7525,3.7495,3.7492,3.7495,3.7492,3.7488,3.7486,3.7474,3.7493,3.7496,3.7513,3.7477,3.7542,3.7545,3.7547,3.7581,3.7587,3.7591,0,0,0,0,0,3.7485,3.7513,3.7503,3.7505,3.7514,3.7526,3.7527,3.7513,3.7497,3.7509,3.7502,3.7486,3.751,3.7496,3.7498,3.7515,3.7541,3.7544,3.7547,3.7578,3.7585,3.7591,0,0,0,0,0,0,3.7521,3.7512,3.7501,3.7527,3.7528,3.752,3.7535,3.7521,3.7526,3.7523,3.7505,3.7504,3.7525,3.7523,3.7507,3.7545,3.7522,3.7526,3.7546,3.7552,3.7557,3.7557,3.7478,0,0,0,0,0,3.7531,3.7543,3.7534,3.7558,3.7559,3.7547,3.7552,3.7541,3.7541,3.7541,3.7535,3.7535,3.7542,3.7547,3.7554,3.7581,3.7578,3.7594,3.7599,3.7603,3.7606,3.7618,3.7624,3.7558,3.7558,3.7558,0,0,3.7554,3.7551,3.7559,3.7565,3.7564,3.7575,3.7547,3.7561,3.7568,3.7543,3.7559,3.7555,3.7554,3.7576,3.7586,3.7574,3.7624,3.7607,3.7611,3.7611,3.7622,3.7628,3.7633,3.756,3.7559,3.7559,0,0,3.76,3.76,3.7618,3.7618,3.7616,3.7608,3.7613,3.7607,3.7603,3.762,3.7601,3.7609,3.7623,3.7621,3.7623,3.7667,3.7651,3.7669,3.7696,3.7708,3.7713,3.7718,3.7732,3.7737,3.7673,3.7673,3.7673,0,3.7628,3.7644,3.763,3.7644,3.7646,3.7624,3.7641,3.7642,3.7642,3.7644,3.7632,3.7646,3.7644,3.7665,3.7675,3.7678,3.7681,3.7669,3.7714,3.7718,3.7722,3.7735,3.774,3.7675,3.7675,3.7674,3.7674,0,3.7677,3.7689,3.7704,3.7705,3.7709,3.7725,3.7712,3.7718,3.7707,3.77,3.7716,3.7712,3.7716,3.7721,3.771,3.7739,3.7732,3.7717,3.7694,3.7731,3.7742,3.7747,3.7678,3.7677,3.7676,3.7676,0,0,3.7745,3.7737,3.7743,3.7742,3.7738,3.7746,3.7761,3.7764,3.7769,3.777,3.778,3.7792,3.7777,3.7779,3.7768,3.7778,3.7811,3.7762,3.7761,3.7769,3.784,3.785,3.7856,3.7801,3.7802,3.7803,3.784,0,3.7788,3.7812,3.7799,3.7824,3.7833,3.7811,3.7823,3.7822,3.7815,3.7821,3.7814,3.7821,3.7803,3.7803,3.7813,3.7805,3.7824,3.7802,3.7809,3.7809,3.7808,3.7863,3.7873,3.7909,3.7844,3.7845,3.7846,0,3.7841,3.7844,3.787,3.7862,3.7866,3.7877,3.7878,3.7885,3.7882,3.7876,3.7877,3.7863,3.7875,3.7854,3.7869,3.7854,3.7856,3.7853,3.7854,3.7852,3.7828,3.7861,3.792,3.7924,3.7853,3.7852,3.7852,0,3.7885,3.7895,3.7911,3.7912,3.7904,3.7912,3.7909,3.7906,3.7908,3.7909,3.791,3.7914,3.7915,3.7917,3.7903,3.7889,3.792,3.7898,3.7914,3.7914,3.792,3.792,3.7978,3.7925,3.7925,3.7925,3.7924,0,3.7933,3.7949,3.7931,3.7941,3.7958,3.7942,3.7959,3.7954,3.795,3.7958,3.794,3.7947,3.793,3.7936,3.7925,3.7938,3.794,3.7934,3.7931,3.7935,3.7935,3.7935,3.7931,3.7926,3.7926,3.7925,3.7925,0,3.7984,3.7973,3.7989,3.798,3.7978,3.7991,3.7983,3.7991,3.7983,3.7993,3.7994,3.7982,3.7987,3.7974,3.7978,3.7971,3.7989,3.7983,3.799,3.7987,3.8003,3.8001,3.8062,3.8069,3.8013,3.8013,3.8014,0,3.8015,3.8026,3.8019,3.8022,3.802,3.8027,3.8029,3.8014,3.8017,3.8014,3.8022,3.8026,3.8028,3.8037,3.8027,3.803,3.8022,3.8043,3.8022,3.8025,3.802,3.8019,3.8019,3.8047,3.8048,3.8048,3.8049,0,3.8069,3.8062,3.8066,3.8068,3.8071,3.8072,3.8071,3.8075,3.8059,3.8063,3.8068,3.807,3.8073,3.8076,3.8076,3.8072,3.8057,3.8056,3.8059,3.8062,3.8065,3.8062,3.8,3.8054,3.8053,3.8053,3.8053,3.8053,3.8109,3.8117,3.8113,3.8117,3.8115,3.8115,3.8121,3.8114,3.8118,3.8119,3.811,3.8116,3.8112,3.811,3.8108,3.8112,3.8102,3.8108,3.8109,3.811,3.8112,3.8066,3.8112,3.8112,3.8112,3.8112,3.8112,0,3.816,3.8156,3.816,3.8159,3.8163,3.8149,3.8147,3.8151,3.8157,3.8154,3.8156,3.8161,3.8164,3.8154,3.8156,3.8161,3.8154,3.8161,3.816,3.8159,3.8122,3.8117,3.8167,3.8167,3.8167,3.8167,3.8167,3.8167,3.8187,3.82,3.8192,3.8204,3.8199,3.8205,3.8205,3.8204,3.8202,3.8208,3.821,3.8204,3.8198,3.8199,3.82,3.8197,3.8198,3.8207,3.8202,3.8167,3.8162,3.8156,3.8152,3.8208,3.8208,3.8238,3.8239,3.8239]}]]